Regional Weather Roundup
Issued by NWS

Home | Current Version | Previous Version | Graphics & Text | Print | Product List | Glossary On
Versions: 1 2 3 4 5 6 7 8 9 10 11 12 13 14 15 16 17 18 19 20 21 22 23 24 25 26 27 28 29 30 31 32 33 34 35 36 37 38 39 40 41 42 43 44 45 46 47 48 49 50
000
ASUS43 KOAX 122202
RWRNE

WEATHER ROUNDUP FOR NEBRASKA
NATIONAL WEATHER SERVICE OMAHA NE
400 PM CST FRI FEB 12 2016

NOTES: SATELLITE DATA IS BEING USED TO AUGMENT CLOUD COVER ABOVE
       12000 FEET.
       "FAIR" INDICATES FEW OR NO CLOUDS BELOW 12,000 FEET WITH NO
       SIGNIFICANT WEATHER AND/OR OBSTRUCTIONS TO VISIBILITY.

  * THESE STATIONS DO NOT REPORT WEATHER SUCH AS RAIN...SNOW OR FOG.

NEZ001>004-019>022-054>056-122300-
NEBRASKA PANHANDLE

CITY           SKY/WX    TMP DP  RH WIND       PRES   REMARKS
SCOTTSBLUFF    CLOUDY    37  31  78 E18       30.28F WCI  27
ALLIANCE       CLOUDY    34  29  82 S8        30.31F WCI  27
CHADRON        CLOUDY    38  28  67 E9        30.31F WCI  31
KIMBALL        SUNNY     42  31  64 E12       30.27S
SIDNEY         CLOUDY    33  31  92 SE10      30.31S WCI  25
$$

NEZ057>060-069>072-079>082-122300-
SOUTHWEST NEBRASKA

CITY           SKY/WX    TMP DP  RH WIND       PRES   REMARKS
NORTH PLATTE   CLOUDY    33  25  72 E8        30.39F WCI  26
IMPERIAL       CLOUDY    36  30  79 E9        30.36F WCI  29
MCCOOK         CLOUDY    37  30  75 E7        30.41R WCI  32
$$

NEZ005>010-023>029-035>040-094-122300-
NORTH CENTRAL NEBRASKA

CITY           SKY/WX    TMP DP  RH WIND       PRES   REMARKS
VALENTINE      CLOUDY    25  16  68 E7        30.43F WCI  17
AINSWORTH      CLOUDY    25  17  73 NE8       30.44R WCI  16
BROKEN BOW     CLOUDY    29  21  72 NE8       30.43S WCI  21
ORD            CLOUDY    26  16  65 NE9       30.47R WCI  17
$$

NEZ041-046>049-061>064-073>077-083>087-122300-
SOUTH CENTRAL NEBRASKA

CITY           SKY/WX    TMP DP  RH WIND       PRES   REMARKS
GRAND ISLAND   MOSUNNY   25  16  68 NE13      30.49S WCI  14
HASTINGS       CLOUDY    27  18  69 NE12      30.47S WCI  17
HEBRON         CLOUDY    28  20  70 N9        30.50R WCI  19
KEARNEY *      CLOUDY    27  21  80 N12       30.47R WCI  16
$$

NEZ011>018-030>034-042>045-122300-
NORTHEAST NEBRASKA

CITY           SKY/WX    TMP DP  RH WIND       PRES   REMARKS
NORFOLK        PTSUNNY   19   9  65 N15       30.53R WCI   5
BLAIR          SUNNY     19   6  56 N17       30.53R WCI   4
COLUMBUS *     CLOUDY    21   7  53 N14       30.54R WCI   8
FREMONT        CLOUDY    20   9  62 N12G17    30.56R WCI   8
TEKAMAH        SUNNY     17   5  59 N14       30.58R WCI   3
$$

NEZ050>053-065>068-078-088>093-122300-
SOUTHEAST NEBRASKA

CITY           SKY/WX    TMP DP  RH WIND       PRES   REMARKS
LINCOLN        MOSUNNY   25  14  63 N15       30.54S WCI  13
OMAHA EPPLEY   MOSUNNY   21   7  54 N18       30.56R WCI   6
BEATRICE       SUNNY     28  15  58 N16       30.51R WCI  15
FALLS CITY     MOSUNNY   30  13  49 NE14      30.50R WCI  19
NEBRASKA CITY  SUNNY     26   9  48 N16       30.51R WCI  14
$$

NEZ044-045-051>053-067-122300-
OMAHA AREA

CITY           SKY/WX    TMP DP  RH WIND       PRES   REMARKS
OMAHA EPPLEY   MOSUNNY   21   7  54 N18       30.56R WCI   6
BLAIR          SUNNY     19   6  56 N17       30.53R WCI   4
FREMONT        CLOUDY    20   9  62 N12G17    30.56R WCI   8
OFFUTT AFB     SUNNY     23   7  50 N10G20    30.55R WCI  12
WAHOO          MOCLDY    21  14  72 N15       30.54R WCI   8
$$



USA.gov is the U.S. government's official web portal to all federal, state and local government web resources and services.